WINGS NECK MA US USARMY-COE current weather conditions

sailwx.info

Wind from 133 at 3 knots

Air temperature 20.4° C

Last reported at 2020-Aug-08 11:30 UTC.
Time now 2020-Aug-08 12:30 UTC

Location: N 41°44' W 070°36'.
View on Google Maps.

See reports from other nearby stations

  
Tides and Currents Weather Stations Pressure Air Temp Water Temp Dewpoint Dewpoint Depression Visibility Wind Speed Wind Dir Waves Ship Positions
date/time (UTC)wind fromknots sea level pressurealtimeterstation pressurevisibilityair tempwater tempwave heightnotes
2020-Aug-08 11:30 133 3 20.4
2020-Aug-08 10:45 076 4 20.2
2020-Aug-08 10:30 089 4 20.1
2020-Aug-08 09:30 050 2 20.1
2020-Aug-08 08:30 084 3 19.9
2020-Aug-08 07:30 085 5 20.1
2020-Aug-08 06:30 063 5 20.1
2020-Aug-08 05:30 131 5 20.1
2020-Aug-08 04:46 120 3 20.1
2020-Aug-08 04:30 090 3 20.1
2020-Aug-08 03:30 085 4 20.3
2020-Aug-08 02:30 110 3 20.8
2020-Aug-08 01:30 110 6 21.2
2020-Aug-08 00:30 097 2 22.4
2020-Aug-07 23:30 082 5 24.3
2020-Aug-07 22:46 054 4 25.5
2020-Aug-07 22:30 073 5 25.2
2020-Aug-07 21:30 060 7 24.2
2020-Aug-07 20:30 074 6 24.6
2020-Aug-07 19:30 066 5 26.2
2020-Aug-07 18:30 141 6 27.6
2020-Aug-07 17:30 123 9 28.6
2020-Aug-07 16:46 136 11 28.5
2020-Aug-07 16:30 146 11 28.6
2020-Aug-07 15:30 134 6 28.1
2020-Aug-07 14:30 147 4 26.4
2020-Aug-07 13:30 050 5 23.3
2020-Aug-07 12:30 069 1 23.6
2020-Aug-07 11:30 089 3 21.8
2020-Aug-07 10:30 088 4 21.2
2020-Aug-07 09:30 084 6 21.6
2020-Aug-07 08:30 046 6 21.8
2020-Aug-07 06:30 036 5 23.1
2020-Aug-07 05:30 031 2 23.1
2020-Aug-07 04:31 354 2 23.6
2020-Aug-07 04:30 354 2 23.6
2020-Aug-07 03:30 326 1 24.2
2020-Aug-07 02:30 282 3 24.7
2020-Aug-07 01:30 249 4 24.7
2020-Aug-07 00:30 249 6 25.3
2020-Aug-06 23:30 266 4 25.9
2020-Aug-06 22:30 235 6 26.6
2020-Aug-06 21:30 229 5 26.6
2020-Aug-06 20:30 215 8 26.7
2020-Aug-06 19:30 204 10 27.1
2020-Aug-06 18:30 200 8 27.6
2020-Aug-06 17:30 217 7 27.8
2020-Aug-06 16:31 229 6 27.3
2020-Aug-06 16:30 229 6 27.3
2020-Aug-06 15:30 302 2 27.1
2020-Aug-06 14:30 033 0 27.2
2020-Aug-06 13:30 038 5 26.2
2020-Aug-06 12:30 061 2 24.4